Volver al catálogo

CZ-2C R/B

ActivoVLEO
NORAD 48427·ROCKET BODY·🇨🇳 China

Lanzado May 6, 2021 desde Xichang Satellite Launch Center

Loading…

Próximos Pases (próximas 24 horas)

TLE

ActualizadoSource: Space-Track

Época: Sep 14, 2026, 10:51 UTC

1 48427U 21039E   26257.45267391  .00938663  54327-3  67577-3 0  9993
2 48427  34.9657 269.8897 0004860 237.2250 122.8024 16.14912265299814

Sigue CZ-2C R/B en tiempo real con AllMySat

Download on the App Store